owner,sensor,date,latitude,longitude,vertical_datum,sea_water_practical_salinity,qcFlag 
LUMCON,ioos:station:LUMCON:101:1,2019-05-01T00:00:00Z,29.2533,-90.6633,2.0,8.47,11111222 
LUMCON,ioos:station:LUMCON:101:1,2019-05-01T00:15:00Z,29.2533,-90.6633,1.998,8.31,11111222 
LUMCON,ioos:station:LUMCON:101:1,2019-05-01T00:30:00Z,29.2533,-90.6633,2.0,8.42,11111222 
LUMCON,ioos:station:LUMCON:101:1,2019-05-01T00:45:00Z,29.2533,-90.6633,1.999,8.81,11111222 
LUMCON,ioos:station:LUMCON:101:1,2019-05-01T01:00:00Z,29.2533,-90.6633,1.999,9.4,11111222 
LUMCON,ioos:station:LUMCON:101:1,2019-05-01T01:15:00Z,29.2533,-90.6633,1.998,9.58,11111222 
LUMCON,ioos:station:LUMCON:101:1,2019-05-01T01:30:00Z,29.2533,-90.6633,1.998,9.66,11111222 
LUMCON,ioos:station:LUMCON:101:1,2019-05-01T01:45:00Z,29.2533,-90.6633,2.001,9.71,11111222 
LUMCON,ioos:station:LUMCON:101:1,2019-05-01T02:00:00Z,29.2533,-90.6633,2.002,9.6,11111222 
LUMCON,ioos:station:LUMCON:101:1,2019-05-01T02:15:00Z,29.2533,-90.6633,2.008,9.63,11111222 
LUMCON,ioos:station:LUMCON:101:1,2019-05-01T02:30:00Z,29.2533,-90.6633,2.013,9.15,11111222 
LUMCON,ioos:station:LUMCON:101:1,2019-05-01T02:45:00Z,29.2533,-90.6633,2.018,9.19,11111222 
LUMCON,ioos:station:LUMCON:101:1,2019-05-01T03:00:00Z,29.2533,-90.6633,2.019,9.12,11111222 
LUMCON,ioos:station:LUMCON:101:1,2019-05-01T03:15:00Z,29.2533,-90.6633,2.026,9.19,11111222 
LUMCON,ioos:station:LUMCON:101:1,2019-05-01T03:30:00Z,29.2533,-90.6633,2.027,9.15,11111222 
LUMCON,ioos:station:LUMCON:101:1,2019-05-01T03:45:00Z,29.2533,-90.6633,2.031,9.34,11111222 
LUMCON,ioos:station:LUMCON:101:1,2019-05-01T04:00:00Z,29.2533,-90.6633,2.037,9.33,11111222 
LUMCON,ioos:station:LUMCON:101:1,2019-05-01T04:15:00Z,29.2533,-90.6633,2.042,9.39,11111222 
LUMCON,ioos:station:LUMCON:101:1,2019-05-01T04:30:00Z,29.2533,-90.6633,2.048,9.46,11111222 
LUMCON,ioos:station:LUMCON:101:1,2019-05-01T04:45:00Z,29.2533,-90.6633,2.051,9.52,11111222 
LUMCON,ioos:station:LUMCON:101:1,2019-05-01T05:00:00Z,29.2533,-90.6633,2.056,9.54,11111222 
LUMCON,ioos:station:LUMCON:101:1,2019-05-01T05:15:00Z,29.2533,-90.6633,2.061,9.63,11111222 
LUMCON,ioos:station:LUMCON:101:1,2019-05-01T05:30:00Z,29.2533,-90.6633,2.065,9.62,11111222 
LUMCON,ioos:station:LUMCON:101:1,2019-05-01T05:45:00Z,29.2533,-90.6633,2.064,9.66,11111222 
LUMCON,ioos:station:LUMCON:101:1,2019-05-01T06:00:00Z,29.2533,-90.6633,2.067,9.68,11111222 
LUMCON,ioos:station:LUMCON:101:1,2019-05-01T06:15:00Z,29.2533,-90.6633,2.067,9.71,11111222 
LUMCON,ioos:station:LUMCON:101:1,2019-05-01T06:30:00Z,29.2533,-90.6633,2.067,9.75,11111222 
LUMCON,ioos:station:LUMCON:101:1,2019-05-01T06:45:00Z,29.2533,-90.6633,2.066,9.77,11111222 
LUMCON,ioos:station:LUMCON:101:1,2019-05-01T07:00:00Z,29.2533,-90.6633,2.068,9.76,11111222 
LUMCON,ioos:station:LUMCON:101:1,2019-05-01T07:15:00Z,29.2533,-90.6633,2.069,9.69,11111222 
LUMCON,ioos:station:LUMCON:101:1,2019-05-01T07:30:00Z,29.2533,-90.6633,2.067,9.77,11111222 
LUMCON,ioos:station:LUMCON:101:1,2019-05-01T07:45:00Z,29.2533,-90.6633,2.07,9.74,11111222 
LUMCON,ioos:station:LUMCON:101:1,2019-05-01T08:00:00Z,29.2533,-90.6633,2.059,9.74,11111222 
LUMCON,ioos:station:LUMCON:101:1,2019-05-01T08:15:00Z,29.2533,-90.6633,2.056,9.75,11111222 
LUMCON,ioos:station:LUMCON:101:1,2019-05-01T08:30:00Z,29.2533,-90.6633,2.057,9.69,11111222 
LUMCON,ioos:station:LUMCON:101:1,2019-05-01T08:45:00Z,29.2533,-90.6633,2.05,9.67,11111222 
LUMCON,ioos:station:LUMCON:101:1,2019-05-01T09:00:00Z,29.2533,-90.6633,2.045,9.59,11111222 
LUMCON,ioos:station:LUMCON:101:1,2019-05-01T09:15:00Z,29.2533,-90.6633,2.038,9.58,11111222 
LUMCON,ioos:station:LUMCON:101:1,2019-05-01T09:30:00Z,29.2533,-90.6633,2.032,9.61,11111222 
LUMCON,ioos:station:LUMCON:101:1,2019-05-01T09:45:00Z,29.2533,-90.6633,2.02,9.6,11111222 
LUMCON,ioos:station:LUMCON:101:1,2019-05-01T10:00:00Z,29.2533,-90.6633,2.013,9.54,11111222 
LUMCON,ioos:station:LUMCON:101:1,2019-05-01T10:15:00Z,29.2533,-90.6633,2.01,9.47,11111222 
LUMCON,ioos:station:LUMCON:101:1,2019-05-01T10:30:00Z,29.2533,-90.6633,1.999,9.35,11111222 
LUMCON,ioos:station:LUMCON:101:1,2019-05-01T10:45:00Z,29.2533,-90.6633,2.001,9.29,11111222 
LUMCON,ioos:station:LUMCON:101:1,2019-05-01T11:00:00Z,29.2533,-90.6633,1.995,9.26,11111222 
LUMCON,ioos:station:LUMCON:101:1,2019-05-01T11:15:00Z,29.2533,-90.6633,1.99,9.26,11111222 
LUMCON,ioos:station:LUMCON:101:1,2019-05-01T11:30:00Z,29.2533,-90.6633,1.981,9.11,11111222 
LUMCON,ioos:station:LUMCON:101:1,2019-05-01T11:45:00Z,29.2533,-90.6633,1.976,9.09,11111222 
LUMCON,ioos:station:LUMCON:101:1,2019-05-01T12:00:00Z,29.2533,-90.6633,1.975,8.99,11111222 
LUMCON,ioos:station:LUMCON:101:1,2019-05-01T12:15:00Z,29.2533,-90.6633,1.964,8.88,11111222 
LUMCON,ioos:station:LUMCON:101:1,2019-05-01T12:30:00Z,29.2533,-90.6633,1.958,8.84,11111222 
LUMCON,ioos:station:LUMCON:101:1,2019-05-01T12:45:00Z,29.2533,-90.6633,1.948,8.63,11111222 
LUMCON,ioos:station:LUMCON:101:1,2019-05-01T13:00:00Z,29.2533,-90.6633,1.943,8.46,11111222 
LUMCON,ioos:station:LUMCON:101:1,2019-05-01T13:15:00Z,29.2533,-90.6633,1.942,8.34,11111222 
LUMCON,ioos:station:LUMCON:101:1,2019-05-01T13:30:00Z,29.2533,-90.6633,1.945,8.2,11111222 
LUMCON,ioos:station:LUMCON:101:1,2019-05-01T13:45:00Z,29.2533,-90.6633,1.951,8.13,11111222 
LUMCON,ioos:station:LUMCON:101:1,2019-05-01T14:00:00Z,29.2533,-90.6633,1.95,8.08,11111222 
LUMCON,ioos:station:LUMCON:101:1,2019-05-01T14:15:00Z,29.2533,-90.6633,1.959,8.12,11111222 
LUMCON,ioos:station:LUMCON:101:1,2019-05-01T14:30:00Z,29.2533,-90.6633,1.959,8.19,11111222 
LUMCON,ioos:station:LUMCON:101:1,2019-05-01T14:45:00Z,29.2533,-90.6633,1.965,8.47,11111222 
LUMCON,ioos:station:LUMCON:101:1,2019-05-01T15:00:00Z,29.2533,-90.6633,1.97,9.05,11111222 
LUMCON,ioos:station:LUMCON:101:1,2019-05-01T15:15:00Z,29.2533,-90.6633,1.981,9.08,11111222 
LUMCON,ioos:station:LUMCON:101:1,2019-05-01T15:30:00Z,29.2533,-90.6633,1.986,8.93,11111222 
LUMCON,ioos:station:LUMCON:101:1,2019-05-01T15:45:00Z,29.2533,-90.6633,1.989,8.94,11111222 
LUMCON,ioos:station:LUMCON:101:1,2019-05-01T16:00:00Z,29.2533,-90.6633,1.999,9.02,11111222 
LUMCON,ioos:station:LUMCON:101:1,2019-05-01T16:15:00Z,29.2533,-90.6633,2.003,9.09,11111222 
LUMCON,ioos:station:LUMCON:101:1,2019-05-01T16:30:00Z,29.2533,-90.6633,2.002,9.09,11111222 
LUMCON,ioos:station:LUMCON:101:1,2019-05-01T16:45:00Z,29.2533,-90.6633,2.002,9.14,11111222 
LUMCON,ioos:station:LUMCON:101:1,2019-05-01T17:00:00Z,29.2533,-90.6633,2.008,9.17,11111222 
LUMCON,ioos:station:LUMCON:101:1,2019-05-01T17:15:00Z,29.2533,-90.6633,2.012,9.18,11111222 
LUMCON,ioos:station:LUMCON:101:1,2019-05-01T17:30:00Z,29.2533,-90.6633,2.016,9.14,11111222 
LUMCON,ioos:station:LUMCON:101:1,2019-05-01T17:45:00Z,29.2533,-90.6633,2.015,9.13,11111222 
LUMCON,ioos:station:LUMCON:101:1,2019-05-01T18:00:00Z,29.2533,-90.6633,2.021,9.18,11111222 
LUMCON,ioos:station:LUMCON:101:1,2019-05-01T18:15:00Z,29.2533,-90.6633,2.02,9.15,11111222 
LUMCON,ioos:station:LUMCON:101:1,2019-05-01T18:30:00Z,29.2533,-90.6633,2.017,9.18,11111222 
LUMCON,ioos:station:LUMCON:101:1,2019-05-01T18:45:00Z,29.2533,-90.6633,2.017,9.17,11111222 
LUMCON,ioos:station:LUMCON:101:1,2019-05-01T19:00:00Z,29.2533,-90.6633,2.014,9.2,11111222 
LUMCON,ioos:station:LUMCON:101:1,2019-05-01T19:15:00Z,29.2533,-90.6633,2.011,9.1,11111222 
LUMCON,ioos:station:LUMCON:101:1,2019-05-01T19:30:00Z,29.2533,-90.6633,2.0,9.14,11111222 
LUMCON,ioos:station:LUMCON:101:1,2019-05-01T19:45:00Z,29.2533,-90.6633,1.999,9.09,11111222 
LUMCON,ioos:station:LUMCON:101:1,2019-05-01T20:00:00Z,29.2533,-90.6633,1.998,9.08,11111222 
LUMCON,ioos:station:LUMCON:101:1,2019-05-01T20:15:00Z,29.2533,-90.6633,1.997,9.09,11111222 
LUMCON,ioos:station:LUMCON:101:1,2019-05-01T20:30:00Z,29.2533,-90.6633,1.994,9.12,11111222 
LUMCON,ioos:station:LUMCON:101:1,2019-05-01T20:45:00Z,29.2533,-90.6633,1.989,9.1,11111222 
LUMCON,ioos:station:LUMCON:101:1,2019-05-01T21:00:00Z,29.2533,-90.6633,1.986,9.1,11111222 
LUMCON,ioos:station:LUMCON:101:1,2019-05-01T21:15:00Z,29.2533,-90.6633,1.984,9.09,11111222 
LUMCON,ioos:station:LUMCON:101:1,2019-05-01T21:30:00Z,29.2533,-90.6633,1.976,9.05,11111222 
LUMCON,ioos:station:LUMCON:101:1,2019-05-01T21:45:00Z,29.2533,-90.6633,1.972,9.09,11111222 
LUMCON,ioos:station:LUMCON:101:1,2019-05-01T22:00:00Z,29.2533,-90.6633,1.968,9.02,11111222 
LUMCON,ioos:station:LUMCON:101:1,2019-05-01T22:15:00Z,29.2533,-90.6633,1.964,9.02,11111222 
LUMCON,ioos:station:LUMCON:101:1,2019-05-01T22:30:00Z,29.2533,-90.6633,1.964,9.04,11111222 
LUMCON,ioos:station:LUMCON:101:1,2019-05-01T22:45:00Z,29.2533,-90.6633,1.961,8.95,11111222 
LUMCON,ioos:station:LUMCON:101:1,2019-05-01T23:00:00Z,29.2533,-90.6633,1.963,8.96,11111222 
LUMCON,ioos:station:LUMCON:101:1,2019-05-01T23:15:00Z,29.2533,-90.6633,1.963,8.96,11111222 
LUMCON,ioos:station:LUMCON:101:1,2019-05-01T23:30:00Z,29.2533,-90.6633,1.964,8.99,11111222 
LUMCON,ioos:station:LUMCON:101:1,2019-05-01T23:45:00Z,29.2533,-90.6633,1.965,8.96,11111222 
LUMCON,ioos:station:LUMCON:101:1,2019-05-02T00:00:00Z,29.2533,-90.6633,1.966,8.99,11111222 
LUMCON,ioos:station:LUMCON:101:1,2019-05-02T00:15:00Z,29.2533,-90.6633,1.966,9.05,11111222 
LUMCON,ioos:station:LUMCON:101:1,2019-05-02T00:30:00Z,29.2533,-90.6633,1.969,9.07,11111222 
LUMCON,ioos:station:LUMCON:101:1,2019-05-02T00:45:00Z,29.2533,-90.6633,1.968,9.02,11111222 
LUMCON,ioos:station:LUMCON:101:1,2019-05-02T01:00:00Z,29.2533,-90.6633,1.967,9.08,11111222 
LUMCON,ioos:station:LUMCON:101:1,2019-05-02T01:15:00Z,29.2533,-90.6633,1.969,9.1,11111222 
LUMCON,ioos:station:LUMCON:101:1,2019-05-02T01:30:00Z,29.2533,-90.6633,1.972,9.25,11111222 
LUMCON,ioos:station:LUMCON:101:1,2019-05-02T01:45:00Z,29.2533,-90.6633,1.971,9.04,11111222 
LUMCON,ioos:station:LUMCON:101:1,2019-05-02T02:00:00Z,29.2533,-90.6633,1.975,9.09,11111222 
LUMCON,ioos:station:LUMCON:101:1,2019-05-02T02:15:00Z,29.2533,-90.6633,1.977,9.07,11111222 
LUMCON,ioos:station:LUMCON:101:1,2019-05-02T02:30:00Z,29.2533,-90.6633,1.984,9.07,11111222 
LUMCON,ioos:station:LUMCON:101:1,2019-05-02T02:45:00Z,29.2533,-90.6633,1.988,9.1,11111222 
LUMCON,ioos:station:LUMCON:101:1,2019-05-02T03:00:00Z,29.2533,-90.6633,1.991,9.06,11111222 
LUMCON,ioos:station:LUMCON:101:1,2019-05-02T03:15:00Z,29.2533,-90.6633,1.995,9.09,11111222 
LUMCON,ioos:station:LUMCON:101:1,2019-05-02T03:30:00Z,29.2533,-90.6633,2.002,9.04,11111222 
LUMCON,ioos:station:LUMCON:101:1,2019-05-02T03:45:00Z,29.2533,-90.6633,2.01,9.03,11111222 
LUMCON,ioos:station:LUMCON:101:1,2019-05-02T04:00:00Z,29.2533,-90.6633,2.015,9.04,11111222 
LUMCON,ioos:station:LUMCON:101:1,2019-05-02T04:15:00Z,29.2533,-90.6633,2.023,9.04,11111222 
LUMCON,ioos:station:LUMCON:101:1,2019-05-02T04:30:00Z,29.2533,-90.6633,2.031,9.11,11111222 
LUMCON,ioos:station:LUMCON:101:1,2019-05-02T04:45:00Z,29.2533,-90.6633,2.04,9.16,11111222 
LUMCON,ioos:station:LUMCON:101:1,2019-05-02T05:00:00Z,29.2533,-90.6633,2.051,9.21,11111222 
LUMCON,ioos:station:LUMCON:101:1,2019-05-02T05:15:00Z,29.2533,-90.6633,2.056,9.2,11111222 
LUMCON,ioos:station:LUMCON:101:1,2019-05-02T05:30:00Z,29.2533,-90.6633,2.06,9.26,11111222 
LUMCON,ioos:station:LUMCON:101:1,2019-05-02T05:45:00Z,29.2533,-90.6633,2.062,9.27,11111222 
LUMCON,ioos:station:LUMCON:101:1,2019-05-02T06:00:00Z,29.2533,-90.6633,2.063,9.31,11111222 
LUMCON,ioos:station:LUMCON:101:1,2019-05-02T06:15:00Z,29.2533,-90.6633,2.069,9.3,11111222 
LUMCON,ioos:station:LUMCON:101:1,2019-05-02T06:30:00Z,29.2533,-90.6633,2.081,9.32,11111222 
LUMCON,ioos:station:LUMCON:101:1,2019-05-02T06:45:00Z,29.2533,-90.6633,2.079,9.33,11111222 
LUMCON,ioos:station:LUMCON:101:1,2019-05-02T07:00:00Z,29.2533,-90.6633,2.083,9.33,11111222 
LUMCON,ioos:station:LUMCON:101:1,2019-05-02T07:15:00Z,29.2533,-90.6633,2.088,9.35,11111222 
LUMCON,ioos:station:LUMCON:101:1,2019-05-02T07:30:00Z,29.2533,-90.6633,2.094,9.37,11111222 
LUMCON,ioos:station:LUMCON:101:1,2019-05-02T07:45:00Z,29.2533,-90.6633,2.091,9.45,11111222 
LUMCON,ioos:station:LUMCON:101:1,2019-05-02T08:00:00Z,29.2533,-90.6633,2.091,9.43,11111222 
LUMCON,ioos:station:LUMCON:101:1,2019-05-02T08:15:00Z,29.2533,-90.6633,2.088,9.45,11111222 
LUMCON,ioos:station:LUMCON:101:1,2019-05-02T08:30:00Z,29.2533,-90.6633,2.084,9.43,11111222 
LUMCON,ioos:station:LUMCON:101:1,2019-05-02T08:45:00Z,29.2533,-90.6633,2.075,9.46,11111222 
LUMCON,ioos:station:LUMCON:101:1,2019-05-02T09:00:00Z,29.2533,-90.6633,2.069,9.4,11111222 
LUMCON,ioos:station:LUMCON:101:1,2019-05-02T09:15:00Z,29.2533,-90.6633,2.07,9.43,11111222 
LUMCON,ioos:station:LUMCON:101:1,2019-05-02T09:30:00Z,29.2533,-90.6633,2.06,9.44,11111222 
LUMCON,ioos:station:LUMCON:101:1,2019-05-02T09:45:00Z,29.2533,-90.6633,2.06,9.43,11111222 
LUMCON,ioos:station:LUMCON:101:1,2019-05-02T10:00:00Z,29.2533,-90.6633,2.048,9.36,11111222 
LUMCON,ioos:station:LUMCON:101:1,2019-05-02T10:15:00Z,29.2533,-90.6633,2.038,9.41,11111222 
LUMCON,ioos:station:LUMCON:101:1,2019-05-02T10:30:00Z,29.2533,-90.6633,2.031,9.35,11111222 
LUMCON,ioos:station:LUMCON:101:1,2019-05-02T10:45:00Z,29.2533,-90.6633,2.03,9.31,11111222 
LUMCON,ioos:station:LUMCON:101:1,2019-05-02T11:00:00Z,29.2533,-90.6633,2.033,9.3,11111222 
LUMCON,ioos:station:LUMCON:101:1,2019-05-02T11:15:00Z,29.2533,-90.6633,2.042,9.27,11111222 
LUMCON,ioos:station:LUMCON:101:1,2019-05-02T11:30:00Z,29.2533,-90.6633,2.053,9.31,11111222 
LUMCON,ioos:station:LUMCON:101:1,2019-05-02T11:45:00Z,29.2533,-90.6633,2.06,9.25,11111222 
LUMCON,ioos:station:LUMCON:101:1,2019-05-02T12:00:00Z,29.2533,-90.6633,2.069,9.28,11111222 
LUMCON,ioos:station:LUMCON:101:1,2019-05-02T12:15:00Z,29.2533,-90.6633,2.069,9.28,11111222 
LUMCON,ioos:station:LUMCON:101:1,2019-05-02T12:30:00Z,29.2533,-90.6633,2.06,9.28,11111222 
LUMCON,ioos:station:LUMCON:101:1,2019-05-02T12:45:00Z,29.2533,-90.6633,2.05,9.31,11111222 
LUMCON,ioos:station:LUMCON:101:1,2019-05-02T13:00:00Z,29.2533,-90.6633,2.051,9.4,11111222 
LUMCON,ioos:station:LUMCON:101:1,2019-05-02T13:15:00Z,29.2533,-90.6633,2.054,9.32,11111222 
LUMCON,ioos:station:LUMCON:101:1,2019-05-02T13:30:00Z,29.2533,-90.6633,2.058,9.36,11111222 
LUMCON,ioos:station:LUMCON:101:1,2019-05-02T13:45:00Z,29.2533,-90.6633,2.071,9.35,11111222 
LUMCON,ioos:station:LUMCON:101:1,2019-05-02T14:00:00Z,29.2533,-90.6633,2.064,9.33,11111222 
LUMCON,ioos:station:LUMCON:101:1,2019-05-02T14:15:00Z,29.2533,-90.6633,2.06,9.33,11111222 
LUMCON,ioos:station:LUMCON:101:1,2019-05-02T14:30:00Z,29.2533,-90.6633,2.058,9.39,11111222 
LUMCON,ioos:station:LUMCON:101:1,2019-05-02T14:45:00Z,29.2533,-90.6633,2.063,9.43,11111222 
LUMCON,ioos:station:LUMCON:101:1,2019-05-02T15:00:00Z,29.2533,-90.6633,2.065,9.41,11111222 
LUMCON,ioos:station:LUMCON:101:1,2019-05-02T15:15:00Z,29.2533,-90.6633,2.068,9.38,11111222 
LUMCON,ioos:station:LUMCON:101:1,2019-05-02T15:30:00Z,29.2533,-90.6633,2.066,9.39,11111222 
LUMCON,ioos:station:LUMCON:101:1,2019-05-02T15:45:00Z,29.2533,-90.6633,2.064,9.4,11111222 
LUMCON,ioos:station:LUMCON:101:1,2019-05-02T16:00:00Z,29.2533,-90.6633,2.069,9.44,11111222 
LUMCON,ioos:station:LUMCON:101:1,2019-05-02T16:15:00Z,29.2533,-90.6633,2.06,9.45,11111222 
LUMCON,ioos:station:LUMCON:101:1,2019-05-02T16:30:00Z,29.2533,-90.6633,2.046,9.39,11111222 
LUMCON,ioos:station:LUMCON:101:1,2019-05-02T16:45:00Z,29.2533,-90.6633,2.025,9.36,11111222 
LUMCON,ioos:station:LUMCON:101:1,2019-05-02T17:00:00Z,29.2533,-90.6633,2.021,9.34,11111222 
LUMCON,ioos:station:LUMCON:101:1,2019-05-02T17:15:00Z,29.2533,-90.6633,2.009,9.39,11111222 
LUMCON,ioos:station:LUMCON:101:1,2019-05-02T17:30:00Z,29.2533,-90.6633,2.003,9.28,11111222 
LUMCON,ioos:station:LUMCON:101:1,2019-05-02T17:45:00Z,29.2533,-90.6633,1.991,9.22,11111222 
LUMCON,ioos:station:LUMCON:101:1,2019-05-02T18:00:00Z,29.2533,-90.6633,1.991,9.15,11111222 
LUMCON,ioos:station:LUMCON:101:1,2019-05-02T18:15:00Z,29.2533,-90.6633,1.984,9.16,11111222 
LUMCON,ioos:station:LUMCON:101:1,2019-05-02T18:30:00Z,29.2533,-90.6633,1.978,9.14,11111222 
LUMCON,ioos:station:LUMCON:101:1,2019-05-02T18:45:00Z,29.2533,-90.6633,1.967,9.07,11111222 
LUMCON,ioos:station:LUMCON:101:1,2019-05-02T19:00:00Z,29.2533,-90.6633,1.953,8.98,11111222 
LUMCON,ioos:station:LUMCON:101:1,2019-05-02T19:15:00Z,29.2533,-90.6633,1.94,8.92,11111222 
LUMCON,ioos:station:LUMCON:101:1,2019-05-02T19:30:00Z,29.2533,-90.6633,1.928,8.86,11111222 
LUMCON,ioos:station:LUMCON:101:1,2019-05-02T19:45:00Z,29.2533,-90.6633,1.929,8.69,11111222 
LUMCON,ioos:station:LUMCON:101:1,2019-05-02T20:00:00Z,29.2533,-90.6633,1.926,8.6,11111222 
LUMCON,ioos:station:LUMCON:101:1,2019-05-02T20:15:00Z,29.2533,-90.6633,1.915,8.44,11111222 
LUMCON,ioos:station:LUMCON:101:1,2019-05-02T20:30:00Z,29.2533,-90.6633,1.909,8.32,11111222 
LUMCON,ioos:station:LUMCON:101:1,2019-05-02T20:45:00Z,29.2533,-90.6633,1.904,8.17,11111222 
LUMCON,ioos:station:LUMCON:101:1,2019-05-02T21:00:00Z,29.2533,-90.6633,1.909,8.02,11111222 
LUMCON,ioos:station:LUMCON:101:1,2019-05-02T21:15:00Z,29.2533,-90.6633,1.912,7.9,11111222 
LUMCON,ioos:station:LUMCON:101:1,2019-05-02T21:30:00Z,29.2533,-90.6633,1.918,7.82,11111222 
LUMCON,ioos:station:LUMCON:101:1,2019-05-02T21:45:00Z,29.2533,-90.6633,1.907,7.78,11111222 
LUMCON,ioos:station:LUMCON:101:1,2019-05-02T22:00:00Z,29.2533,-90.6633,1.906,7.68,11111222 
LUMCON,ioos:station:LUMCON:101:1,2019-05-02T22:15:00Z,29.2533,-90.6633,1.914,7.7,11111222 
LUMCON,ioos:station:LUMCON:101:1,2019-05-02T22:30:00Z,29.2533,-90.6633,1.91,7.97,11111222 
LUMCON,ioos:station:LUMCON:101:1,2019-05-02T22:45:00Z,29.2533,-90.6633,1.911,8.47,11111222 
LUMCON,ioos:station:LUMCON:101:1,2019-05-02T23:00:00Z,29.2533,-90.6633,1.919,8.94,11111222 
LUMCON,ioos:station:LUMCON:101:1,2019-05-02T23:15:00Z,29.2533,-90.6633,1.927,8.95,11111222 
LUMCON,ioos:station:LUMCON:101:1,2019-05-02T23:30:00Z,29.2533,-90.6633,1.926,8.9,11111222 
LUMCON,ioos:station:LUMCON:101:1,2019-05-02T23:45:00Z,29.2533,-90.6633,1.915,9.03,11111222 
LUMCON,ioos:station:LUMCON:101:1,2019-05-03T00:00:00Z,29.2533,-90.6633,1.912,8.98,11111222 
LUMCON,ioos:station:LUMCON:101:1,2019-05-03T00:15:00Z,29.2533,-90.6633,1.913,8.75,11111222 
LUMCON,ioos:station:LUMCON:101:1,2019-05-03T00:30:00Z,29.2533,-90.6633,1.907,8.67,11111222 
LUMCON,ioos:station:LUMCON:101:1,2019-05-03T00:45:00Z,29.2533,-90.6633,1.918,8.43,11111222 
LUMCON,ioos:station:LUMCON:101:1,2019-05-03T01:00:00Z,29.2533,-90.6633,1.916,8.33,11111222 
LUMCON,ioos:station:LUMCON:101:1,2019-05-03T01:15:00Z,29.2533,-90.6633,1.918,8.01,11111222 
LUMCON,ioos:station:LUMCON:101:1,2019-05-03T01:30:00Z,29.2533,-90.6633,1.92,8.0,11111222 
LUMCON,ioos:station:LUMCON:101:1,2019-05-03T01:45:00Z,29.2533,-90.6633,1.93,8.22,11111222 
LUMCON,ioos:station:LUMCON:101:1,2019-05-03T02:00:00Z,29.2533,-90.6633,1.928,8.34,11111222 
LUMCON,ioos:station:LUMCON:101:1,2019-05-03T02:15:00Z,29.2533,-90.6633,1.935,8.42,11111222 
LUMCON,ioos:station:LUMCON:101:1,2019-05-03T02:30:00Z,29.2533,-90.6633,1.934,8.59,11111222 
LUMCON,ioos:station:LUMCON:101:1,2019-05-03T02:45:00Z,29.2533,-90.6633,1.939,8.51,11111222 
LUMCON,ioos:station:LUMCON:101:1,2019-05-03T03:00:00Z,29.2533,-90.6633,1.944,8.69,11111222 
LUMCON,ioos:station:LUMCON:101:1,2019-05-03T03:15:00Z,29.2533,-90.6633,1.95,8.75,11111222 
LUMCON,ioos:station:LUMCON:101:1,2019-05-03T03:30:00Z,29.2533,-90.6633,1.947,8.79,11111222 
LUMCON,ioos:station:LUMCON:101:1,2019-05-03T03:45:00Z,29.2533,-90.6633,1.939,8.78,11111222 
LUMCON,ioos:station:LUMCON:101:1,2019-05-03T04:00:00Z,29.2533,-90.6633,1.942,8.82,11111222 
LUMCON,ioos:station:LUMCON:101:1,2019-05-03T04:15:00Z,29.2533,-90.6633,1.949,8.79,11111222 
LUMCON,ioos:station:LUMCON:101:1,2019-05-03T04:30:00Z,29.2533,-90.6633,1.95,8.81,11111222 
LUMCON,ioos:station:LUMCON:101:1,2019-05-03T04:45:00Z,29.2533,-90.6633,1.962,8.82,11111222 
LUMCON,ioos:station:LUMCON:101:1,2019-05-03T05:00:00Z,29.2533,-90.6633,1.963,8.8,11111222 
LUMCON,ioos:station:LUMCON:101:1,2019-05-03T05:15:00Z,29.2533,-90.6633,1.969,8.81,11111222 
LUMCON,ioos:station:LUMCON:101:1,2019-05-03T05:30:00Z,29.2533,-90.6633,1.982,8.84,11111222 
LUMCON,ioos:station:LUMCON:101:1,2019-05-03T05:45:00Z,29.2533,-90.6633,1.977,8.81,11111222 
LUMCON,ioos:station:LUMCON:101:1,2019-05-03T06:00:00Z,29.2533,-90.6633,1.967,8.86,11111222 
LUMCON,ioos:station:LUMCON:101:1,2019-05-03T06:15:00Z,29.2533,-90.6633,1.957,8.88,11111222 
LUMCON,ioos:station:LUMCON:101:1,2019-05-03T06:30:00Z,29.2533,-90.6633,1.947,8.85,11111222 
LUMCON,ioos:station:LUMCON:101:1,2019-05-03T06:45:00Z,29.2533,-90.6633,1.954,8.83,11111222 
LUMCON,ioos:station:LUMCON:101:1,2019-05-03T07:00:00Z,29.2533,-90.6633,1.961,8.87,11111222 
LUMCON,ioos:station:LUMCON:101:1,2019-05-03T07:15:00Z,29.2533,-90.6633,1.98,8.83,11111222 
LUMCON,ioos:station:LUMCON:101:1,2019-05-03T07:30:00Z,29.2533,-90.6633,1.988,8.86,11111222 
LUMCON,ioos:station:LUMCON:101:1,2019-05-03T07:45:00Z,29.2533,-90.6633,1.994,8.85,11111222 
LUMCON,ioos:station:LUMCON:101:1,2019-05-03T08:00:00Z,29.2533,-90.6633,1.996,8.85,11111222 
LUMCON,ioos:station:LUMCON:101:1,2019-05-03T08:15:00Z,29.2533,-90.6633,1.987,8.88,11111222 
LUMCON,ioos:station:LUMCON:101:1,2019-05-03T08:30:00Z,29.2533,-90.6633,1.99,8.9,11111222 
LUMCON,ioos:station:LUMCON:101:1,2019-05-03T08:45:00Z,29.2533,-90.6633,1.986,8.91,11111222 
LUMCON,ioos:station:LUMCON:101:1,2019-05-03T09:00:00Z,29.2533,-90.6633,1.988,8.9,11111222 
LUMCON,ioos:station:LUMCON:101:1,2019-05-03T09:15:00Z,29.2533,-90.6633,1.986,8.94,11111222 
LUMCON,ioos:station:LUMCON:101:1,2019-05-03T09:30:00Z,29.2533,-90.6633,1.985,8.96,11111222 
LUMCON,ioos:station:LUMCON:101:1,2019-05-03T09:45:00Z,29.2533,-90.6633,1.976,8.91,11111222 
LUMCON,ioos:station:LUMCON:101:1,2019-05-03T10:00:00Z,29.2533,-90.6633,1.97,8.91,11111222 
LUMCON,ioos:station:LUMCON:101:1,2019-05-03T10:15:00Z,29.2533,-90.6633,1.974,8.89,11111222 
LUMCON,ioos:station:LUMCON:101:1,2019-05-03T10:30:00Z,29.2533,-90.6633,1.979,8.9,11111222 
LUMCON,ioos:station:LUMCON:101:1,2019-05-03T10:45:00Z,29.2533,-90.6633,1.982,8.9,11111222 
LUMCON,ioos:station:LUMCON:101:1,2019-05-03T11:00:00Z,29.2533,-90.6633,1.985,8.88,11111222 
LUMCON,ioos:station:LUMCON:101:1,2019-05-03T11:15:00Z,29.2533,-90.6633,1.991,8.89,11111222 
LUMCON,ioos:station:LUMCON:101:1,2019-05-03T11:30:00Z,29.2533,-90.6633,2.0,8.88,11111222 
LUMCON,ioos:station:LUMCON:101:1,2019-05-03T11:45:00Z,29.2533,-90.6633,2.002,8.92,11111222 
LUMCON,ioos:station:LUMCON:101:1,2019-05-03T12:00:00Z,29.2533,-90.6633,2.012,8.96,11111222 
LUMCON,ioos:station:LUMCON:101:1,2019-05-03T12:15:00Z,29.2533,-90.6633,2.013,8.88,11111222 
LUMCON,ioos:station:LUMCON:101:1,2019-05-03T12:30:00Z,29.2533,-90.6633,2.016,8.68,11111222 
LUMCON,ioos:station:LUMCON:101:1,2019-05-03T12:45:00Z,29.2533,-90.6633,2.025,8.69,11111222 
LUMCON,ioos:station:LUMCON:101:1,2019-05-03T13:00:00Z,29.2533,-90.6633,2.026,8.7,11111222 
LUMCON,ioos:station:LUMCON:101:1,2019-05-03T13:15:00Z,29.2533,-90.6633,2.021,8.7,11111222 
LUMCON,ioos:station:LUMCON:101:1,2019-05-03T13:30:00Z,29.2533,-90.6633,2.019,8.77,11111222 
LUMCON,ioos:station:LUMCON:101:1,2019-05-03T13:45:00Z,29.2533,-90.6633,2.013,8.71,11111222 
LUMCON,ioos:station:LUMCON:101:1,2019-05-03T14:00:00Z,29.2533,-90.6633,2.016,8.78,11111222 
LUMCON,ioos:station:LUMCON:101:1,2019-05-03T14:15:00Z,29.2533,-90.6633,2.017,8.7,11111222 
LUMCON,ioos:station:LUMCON:101:1,2019-05-03T14:30:00Z,29.2533,-90.6633,2.02,8.7,11111222 
LUMCON,ioos:station:LUMCON:101:1,2019-05-03T14:45:00Z,29.2533,-90.6633,2.039,8.7,11111222 
LUMCON,ioos:station:LUMCON:101:1,2019-05-03T15:00:00Z,29.2533,-90.6633,2.039,8.69,11111222 
LUMCON,ioos:station:LUMCON:101:1,2019-05-03T15:15:00Z,29.2533,-90.6633,2.034,8.92,11111222 
LUMCON,ioos:station:LUMCON:101:1,2019-05-03T15:30:00Z,29.2533,-90.6633,2.038,8.87,11111222 
LUMCON,ioos:station:LUMCON:101:1,2019-05-03T15:45:00Z,29.2533,-90.6633,2.033,8.84,11111222 
LUMCON,ioos:station:LUMCON:101:1,2019-05-03T16:00:00Z,29.2533,-90.6633,2.036,8.85,11111222 
LUMCON,ioos:station:LUMCON:101:1,2019-05-03T16:15:00Z,29.2533,-90.6633,2.039,8.87,11111222 
LUMCON,ioos:station:LUMCON:101:1,2019-05-03T16:30:00Z,29.2533,-90.6633,2.039,8.83,11111222 
LUMCON,ioos:station:LUMCON:101:1,2019-05-03T16:45:00Z,29.2533,-90.6633,2.046,8.83,11111222 